This is the latest recevied weather packets stored in our database for station/object DK4DAX-2. If no packets are shown the sender has not sent any weather packets the latest 1 day(s).
| Time | Temp. | Humidity | Pressure | Rain* | Wind** | Luminosity | Snow |
|---|---|---|---|---|---|---|---|
| 1836274675 | 16.67° C | 72% | 1019.9 hPa | 0 mm | 0.89 m/s, 190° | - | - |
| 1778019302 | 12.22° C | 97% | 999.3 hPa | 0 mm | 0 m/s | - | - |
| 1778018403 | 12.22° C | 97% | 999.6 hPa | 0 mm | 0 m/s | - | - |
| 1778017503 | 12.78° C | 97% | 999.7 hPa | 0 mm | 0 m/s | - | - |
| 1778016603 | 12.22° C | 97% | 999.7 hPa | 0 mm | 0 m/s | - | - |
| 1778015702 | 12.78° C | 96% | 999.9 hPa | 0 mm | 0 m/s | - | - |
| 1778014803 | 12.78° C | 96% | 999.8 hPa | 0 mm | 0 m/s | - | - |
| 1778013902 | 12.78° C | 96% | 1000 hPa | 0 mm | 0 m/s | - | - |
| 1778013002 | 12.78° C | 95% | 999.8 hPa | 0 mm | 0 m/s | - | - |
| 1778012103 | 13.33° C | 94% | 999.9 hPa | 0 mm | 0 m/s | - | - |
| 1778011203 | 13.33° C | 94% | 999.7 hPa | 0 mm | 0 m/s | - | - |
| 1778010302 | 13.33° C | 93% | 999.7 hPa | 0 mm | 0 m/s | - | - |
| 1778009403 | 13.33° C | 93% | 999.7 hPa | 0 mm | 0 m/s | - | - |
| 1778008503 | 13.89° C | 91% | 999.5 hPa | 0 mm | 0 m/s | - | - |
| 1778007602 | 14.44° C | 91% | 999.7 hPa | 0 mm | 0 m/s | - | - |
| 1778006703 | 14.44° C | 90% | 999.5 hPa | 0 mm | 0 m/s | - | - |
| 1778005803 | 14.44° C | 89% | 999.5 hPa | 0 mm | 0.45 m/s, 137° | - | - |
| 1778004902 | 14.44° C | 87% | 999.7 hPa | 0 mm | 0 m/s | - | - |
| 1778004003 | 15° C | 86% | 999.6 hPa | 0 mm | 0 m/s | - | - |
| 1778003103 | 15° C | 85% | 999.5 hPa | 0 mm | 0 m/s | - | - |
| 1778002202 | 15° C | 83% | 999.7 hPa | 0 mm | 0 m/s | - | - |
| 1778001303 | 15.56° C | 81% | 999.7 hPa | 0 mm | 0.45 m/s, 171° | - | - |
| 1778000403 | 15.56° C | 80% | 999.5 hPa | 0 mm | 0 m/s | - | - |
| 1777999502 | 16.11° C | 80% | 999.6 hPa | 0 mm | 0 m/s | - | - |
| 1777998603 | 16.11° C | 79% | 999.4 hPa | 0 mm | 0 m/s | - | - |
* Rain latest hour (hover to see other rain measurements)
** Current wind speed in m/s (hover to see current wind gust speed)